| time (UTC) | temp C | wind direction | speed KPH | gust KPH | rain 1hr cm | rain 24hr cm | rain mn cm | humidity % | barometer mb |
| 20260510130322 | 12 | 359 | 1.6 | 6.4 | 0.00 | 0.10 | 0.03 | 1 | 1010.5 |
| 20260510125317 | 11 | 359 | 3.2 | 6.4 | 0.00 | 0.10 | 0.03 | 1 | 1010.5 |
| 20260510124316 | 11 | 359 | 0.0 | 4.8 | 0.00 | 0.10 | 0.03 | 1 | 1010.5 |
| 20260510123315 | 11 | 359 | 0.0 | 3.2 | 0.00 | 0.10 | 0.03 | 1 | 1010.5 |
| 20260510122329 | 10 | 359 | 0.0 | 0.0 | 0.00 | 0.10 | 0.03 | 1 | 1010.3 |
| 20260510121318 | 10 | 359 | 0.0 | 0.0 | 0.00 | 0.10 | 0.03 | 1 | 1010.1 |
| 20260510120316 | 10 | 359 | 0.0 | 0.0 | 0.03 | 0.10 | 0.03 | 1 | 1010.1 |
| 20260510115321 | 10 | 359 | 0.0 | 0.0 | 0.03 | 0.10 | 0.03 | 1 | 1010.0 |
| 20260510114341 | 10 | 359 | 0.0 | 0.0 | 0.03 | 0.10 | 0.03 | 1 | 1010.0 |
| 20260510113326 | 10 | 359 | 0.0 | 0.0 | 0.03 | 0.10 | 0.03 | 1 | 1009.9 |
| 20260510112325 | 10 | 359 | 0.0 | 0.0 | 0.03 | 0.10 | 0.03 | 1 | 1009.9 |
| 20260510111322 | 10 | 359 | 0.0 | 0.0 | 0.03 | 0.13 | 0.03 | 1 | 1009.7 |
| 20260510110320 | 10 | 359 | 0.0 | 0.0 | 0.00 | 0.10 | 0.00 | 1 | 1009.5 |
| 20260510105313 | 10 | 359 | 0.0 | 0.0 | 0.00 | 0.10 | 0.00 | 1 | 1009.4 |
| 20260510104327 | 10 | 359 | 0.0 | 0.0 | 0.00 | 0.10 | 0.00 | 1 | 1009.4 |
| 20260510103322 | 10 | 359 | 0.0 | 0.0 | 0.00 | 0.10 | 0.00 | 1 | 1009.1 |
| 20260510102319 | 10 | 359 | 0.0 | 0.0 | 0.00 | 0.10 | 0.00 | 1 | 1009.2 |
| 20260510101327 | 10 | 359 | 0.0 | 0.0 | 0.00 | 0.10 | 0.00 | 1 | 1009.1 |
| 20260510100322 | 10 | 359 | 0.0 | 0.0 | 0.00 | 0.10 | 0.00 | 1 | 1009.0 |
| 20260510095319 | 10 | 359 | 0.0 | 0.0 | 0.00 | 0.10 | 0.00 | 1 | 1008.9 |
| 20260510094328 | 9 | 359 | 0.0 | 0.0 | 0.00 | 0.10 | 0.00 | 1 | 1008.9 |
| 20260510093327 | 10 | 359 | 0.0 | 0.0 | 0.00 | 0.10 | 0.00 | 1 | 1008.8 |
| 20260510092324 | 9 | 359 | 0.0 | 3.2 | 0.00 | 0.10 | 0.00 | 1 | 1008.3 |
| 20260510091320 | 9 | 359 | 0.0 | 0.0 | 0.00 | 0.10 | 0.00 | 1 | 1008.7 |
| 20260510090327 | 9 | 359 | 0.0 | 1.6 | 0.00 | 0.10 | 0.00 | 1 | 1008.4 |
| 20260510085343 | 9 | 359 | 0.0 | 3.2 | 0.00 | 0.10 | 0.00 | 1 | 1008.6 |
| 20260510084320 | 9 | 359 | 0.0 | 3.2 | 0.00 | 0.10 | 0.00 | 1 | 1008.8 |
| 20260510083318 | 10 | 359 | 0.0 | 1.6 | 0.00 | 0.10 | 0.00 | 1 | 1008.9 |
| 20260510082326 | 10 | 359 | 0.0 | 3.2 | 0.00 | 0.10 | 0.00 | 1 | 1008.9 |
| 20260510081323 | 10 | 359 | 0.0 | 1.6 | 0.00 | 0.13 | 0.00 | 1 | 1008.9 |
| 20260510080322 | 10 | 359 | 0.0 | 1.6 | 0.00 | 0.13 | 0.00 | 1 | 1009.1 |
| 20260510075320 | 10 | 359 | 1.6 | 4.8 | 0.00 | 0.13 | 0.00 | 1 | 1009.3 |
| 20260510074320 | 10 | 359 | 0.0 | 3.2 | 0.00 | 0.13 | 0.00 | 1 | 1009.4 |
| 20260510073318 | 10 | 359 | 0.0 | 3.2 | 0.00 | 0.13 | 0.00 | 1 | 1009.4 |
| 20260510072323 | 10 | 359 | 0.0 | 3.2 | 0.00 | 0.13 | 0.00 | 1 | 1009.6 |
| 20260510071321 | 10 | 359 | 1.6 | 4.8 | 0.00 | 0.13 | 0.00 | 1 | 1009.6 |
| 20260510070317 | 9 | 359 | 0.0 | 1.6 | 0.00 | 0.13 | 0.00 | 1 | 1009.7 |
| 20260510065315 | 9 | 359 | 0.0 | 1.6 | 0.00 | 0.13 | 0.00 | 1 | 1009.6 |
| 20260510064323 | 9 | 359 | 0.0 | 0.0 | 0.00 | 0.13 | 0.00 | 1 | 1009.1 |
| 20260510063339 | 9 | 359 | 0.0 | 0.0 | 0.00 | 0.13 | 0.00 | 1 | 1009.1 |
| 20260510062316 | 9 | 359 | 0.0 | 3.2 | 0.00 | 0.13 | 0.00 | 1 | 1009.0 |
| 20260510061315 | 9 | 359 | 1.6 | 4.8 | 0.00 | 0.13 | 0.00 | 1 | 1009.2 |
| 20260510060323 | 8 | 359 | 0.0 | 0.0 | 0.00 | 0.13 | 0.00 | 1 | 1009.3 |
| 20260510055319 | 8 | 359 | 0.0 | 0.0 | 0.00 | 0.13 | 0.00 | 1 | 1009.2 |
| 20260510054318 | 7 | 359 | 0.0 | 0.0 | 0.00 | 0.13 | 0.00 | 1 | 1009.1 |
| 20260510053332 | 8 | 359 | 0.0 | 0.0 | 0.00 | 0.13 | 0.00 | 1 | 1009.0 |
| 20260510052341 | 8 | 359 | 0.0 | 0.0 | 0.00 | 0.13 | 0.00 | 1 | 1008.7 |
| 20260510051314 | 8 | 359 | 0.0 | 0.0 | 0.00 | 0.13 | 0.13 | 1 | 1008.6 |
| 20260510050334 | 8 | 359 | 0.0 | 0.0 | 0.00 | 0.13 | 0.13 | 1 | 1008.5 |
| 20260510045324 | 8 | 359 | 0.0 | 0.0 | 0.00 | 0.13 | 0.13 | 1 | 1008.8 |
| 20260510044323 | 8 | 359 | 0.0 | 0.0 | 0.00 | 0.13 | 0.13 | 1 | 1008.8 |
| 20260510043321 | 8 | 359 | 0.0 | 0.0 | 0.00 | 0.13 | 0.13 | 1 | 1008.6 |
| 20260510042342 | 8 | 359 | 0.0 | 0.0 | 0.00 | 0.13 | 0.13 | 1 | 1008.6 |
| 20260510041317 | 8 | 359 | 0.0 | 0.0 | 0.00 | 0.13 | 0.13 | 1 | 1008.6 |
| 20260510040354 | 8 | 359 | 0.0 | 0.0 | 0.00 | 0.13 | 0.13 | 1 | 1008.6 |
| 20260510035324 | 8 | 359 | 0.0 | 0.0 | 0.00 | 0.13 | 0.13 | 1 | 1008.4 |
| 20260510034321 | 8 | 359 | 0.0 | 0.0 | 0.00 | 0.13 | 0.13 | 1 | 1008.5 |
| 20260510033339 | 8 | 359 | 0.0 | 0.0 | 0.00 | 0.13 | 0.13 | 1 | 1008.4 |
| 20260510032327 | 8 | 359 | 0.0 | 0.0 | 0.00 | 0.13 | 0.13 | 1 | 1008.4 |
| 20260510031323 | 9 | 359 | 0.0 | 0.0 | 0.00 | 0.13 | 0.13 | 1 | 1008.5 |
| 20260510030321 | 9 | 359 | 0.0 | 0.0 | 0.00 | 0.13 | 0.13 | 1 | 1008.4 |
| 20260510025320 | 10 | 359 | 0.0 | 0.0 | 0.00 | 0.13 | 0.13 | 1 | 1008.4 |
| 20260510024319 | 10 | 359 | 0.0 | 0.0 | 0.00 | 0.13 | 0.13 | 1 | 1008.6 |
| 20260510023318 | 10 | 359 | 0.0 | 0.0 | 0.00 | 0.13 | 0.13 | 1 | 1008.7 |
| 20260510022327 | 10 | 359 | 0.0 | 0.0 | 0.00 | 0.13 | 0.13 | 1 | 1008.5 |
| 20260510021319 | 10 | 359 | 0.0 | 0.0 | 0.00 | 0.13 | 0.13 | 1 | 1008.4 |
| 20260510020323 | 10 | 359 | 0.0 | 1.6 | 0.00 | 0.13 | 0.13 | 1 | 1008.4 |
| 20260510015320 | 10 | 359 | 0.0 | 1.6 | 0.03 | 0.13 | 0.13 | 1 | 1008.4 |
| 20260510014318 | 10 | 359 | 0.0 | 1.6 | 0.03 | 0.13 | 0.13 | 1 | 1008.3 |
| 20260510013316 | 10 | 359 | 0.0 | 0.0 | 0.03 | 0.13 | 0.13 | 1 | 1008.4 |
| 20260510012335 | 11 | 359 | 0.0 | 0.0 | 0.03 | 0.13 | 0.13 | 1 | 1008.3 |
| 20260510011324 | 11 | 359 | 0.0 | 1.6 | 0.03 | 0.13 | 0.13 | 1 | 1008.2 |
| 20260510010338 | 11 | 359 | 1.6 | 3.2 | 0.03 | 0.13 | 0.13 | 1 | 1007.9 |
| 20260510005333 | 11 | 359 | 0.0 | 1.6 | 0.00 | 0.10 | 0.10 | 1 | 1008.1 |
| 20260510004342 | 11 | 359 | 0.0 | 3.2 | 0.00 | 0.10 | 0.10 | 1 | 1007.9 |
| 20260510003319 | 11 | 359 | 0.0 | 4.8 | 0.00 | 0.10 | 0.10 | 1 | 1007.8 |
| 20260510002327 | 12 | 359 | 1.6 | 4.8 | 0.00 | 0.10 | 0.10 | 1 | 1007.6 |
| 20260510001323 | 12 | 359 | 0.0 | 1.6 | 0.00 | 0.10 | 0.10 | 1 | 1007.6 |
| 20260510000323 | 12 | 359 | 1.6 | 4.8 | 0.00 | 0.10 | 0.10 | 1 | 1007.4 |
| 20260509235321 | 12 | 167 | 0.0 | 0.0 | 0.00 | 0.10 | 0.10 | 1 | 1007.4 |
| 20260509234319 | 12 | 127 | 0.0 | 3.2 | 0.00 | 0.10 | 0.10 | 1 | 1007.3 |
| 20260509233326 | 12 | 148 | 0.0 | 4.8 | 0.00 | 0.10 | 0.10 | 1 | 1007.3 |
| 20260509232323 | 12 | 110 | 1.6 | 8.0 | 0.00 | 0.10 | 0.10 | 1 | 1007.2 |
| 20260509231318 | 12 | 137 | 1.6 | 6.4 | 0.00 | 0.10 | 0.10 | 1 | 1007.3 |
| 20260509230335 | 12 | 359 | 1.6 | 8.0 | 0.00 | 0.10 | 0.10 | 1 | 1007.4 |
| 20260509225329 | 12 | 359 | 1.6 | 6.4 | 0.00 | 0.10 | 0.10 | 1 | 1007.3 |
| 20260509224347 | 12 | 359 | 0.0 | 0.0 | 0.00 | 0.10 | 0.10 | 1 | 1007.4 |
| 20260509223325 | 12 | 359 | 0.0 | 3.2 | 0.00 | 0.10 | 0.10 | 1 | 1007.4 |
| 20260509222321 | 12 | 359 | 0.0 | 4.8 | 0.00 | 0.10 | 0.10 | 1 | 1007.3 |
| 20260509221339 | 12 | 359 | 0.0 | 4.8 | 0.00 | 0.10 | 0.10 | 1 | 1007.2 |
| 20260509220326 | 12 | 359 | 0.0 | 4.8 | 0.00 | 0.10 | 0.10 | 1 | 1007.4 |
| 20260509215323 | 12 | 359 | 0.0 | 3.2 | 0.00 | 0.10 | 0.10 | 1 | 1007.6 |
| 20260509214322 | 12 | 359 | 0.0 | 6.4 | 0.00 | 0.10 | 0.10 | 1 | 1007.7 |
| 20260509213320 | 12 | 359 | 1.6 | 6.4 | 0.00 | 0.10 | 0.10 | 1 | 1007.8 |
| 20260509212318 | 12 | 359 | 0.0 | 3.2 | 0.00 | 0.10 | 0.10 | 1 | 1007.7 |
| 20260509211330 | 12 | 359 | 1.6 | 8.0 | 0.00 | 0.10 | 0.10 | 1 | 1007.9 |
| 20260509210319 | 12 | 359 | 1.6 | 3.2 | 0.00 | 0.10 | 0.10 | 1 | 1007.8 |
| 20260509205314 | 12 | 359 | 0.0 | 3.2 | 0.03 | 0.10 | 0.10 | 1 | 1007.9 |
| 20260509204324 | 12 | 359 | 0.0 | 4.8 | 0.03 | 0.10 | 0.10 | 1 | 1008.0 |
| 20260509203322 | 12 | 359 | 0.0 | 3.2 | 0.03 | 0.10 | 0.10 | 1 | 1008.1 |
| 20260509202318 | 12 | 359 | 1.6 | 8.0 | 0.03 | 0.10 | 0.10 | 1 | 1008.3 |
| 20260509201337 | 12 | 359 | 1.6 | 8.0 | 0.03 | 0.13 | 0.10 | 1 | 1008.4 |
| 20260509200323 | 12 | 359 | 0.0 | 6.4 | 0.03 | 0.13 | 0.10 | 1 | 1008.4 |
| 20260509195322 | 12 | 359 | 1.6 | 4.8 | 0.00 | 0.10 | 0.08 | 1 | 1008.5 |
| 20260509194340 | 12 | 359 | 3.2 | 6.4 | 0.00 | 0.10 | 0.08 | 1 | 1008.7 |
| 20260509193324 | 12 | 359 | 0.0 | 6.4 | 0.00 | 0.10 | 0.08 | 1 | 1008.8 |
| 20260509192322 | 12 | 359 | 1.6 | 8.0 | 0.00 | 0.10 | 0.08 | 1 | 1009.0 |
| 20260509191319 | 12 | 359 | 3.2 | 6.4 | 0.00 | 0.15 | 0.08 | 1 | 1009.1 |
| 20260509190328 | 12 | 359 | 4.8 | 9.7 | 0.00 | 0.15 | 0.08 | 1 | 1009.3 |
| 20260509185345 | 12 | 359 | 3.2 | 12.9 | 0.00 | 0.15 | 0.08 | 1 | 1009.5 |
| 20260509184342 | 12 | 359 | 3.2 | 14.5 | 0.00 | 0.15 | 0.08 | 1 | 1009.6 |
| 20260509183321 | 12 | 359 | 4.8 | 9.7 | 0.00 | 0.15 | 0.08 | 1 | 1009.5 |
| 20260509182337 | 13 | 359 | 1.6 | 6.4 | 0.00 | 0.15 | 0.08 | 1 | 1009.4 |
| 20260509181327 | 13 | 359 | 0.0 | 6.4 | 0.00 | 0.18 | 0.08 | 1 | 1009.2 |
| 20260509180323 | 13 | 359 | 0.0 | 0.0 | 0.00 | 0.18 | 0.08 | 1 | 1009.1 |
| 20260509175320 | 13 | 359 | 0.0 | 3.2 | 0.00 | 0.18 | 0.08 | 1 | 1009.1 |
| 20260509174315 | 13 | 359 | 0.0 | 0.0 | 0.00 | 0.18 | 0.08 | 1 | 1009.0 |
| 20260509173312 | 13 | 359 | 0.0 | 3.2 | 0.00 | 0.18 | 0.08 | 1 | 1008.8 |
| 20260509172329 | 13 | 359 | 0.0 | 3.2 | 0.00 | 0.18 | 0.08 | 1 | 1008.7 |
| 20260509171324 | 13 | 359 | 0.0 | 3.2 | 0.00 | 0.18 | 0.08 | 1 | 1008.9 |
| 20260509170322 | 13 | 359 | 0.0 | 4.8 | 0.00 | 0.18 | 0.08 | 1 | 1008.9 |
| 20260509165320 | 13 | 359 | 0.0 | 3.2 | 0.00 | 0.18 | 0.08 | 1 | 1009.0 |
| 20260509164329 | 13 | 359 | 0.0 | 3.2 | 0.00 | 0.18 | 0.08 | 1 | 1009.1 |
| 20260509163347 | 12 | 359 | 0.0 | 0.0 | 0.00 | 0.18 | 0.08 | 1 | 1009.2 |
| 20260509162324 | 12 | 359 | 0.0 | 3.2 | 0.00 | 0.18 | 0.08 | 1 | 1009.1 |
| 20260509161322 | 12 | 359 | 1.6 | 4.8 | 0.00 | 0.18 | 0.08 | 1 | 1009.3 |
| 20260509160336 | 12 | 359 | 0.0 | 4.8 | 0.00 | 0.18 | 0.08 | 1 | 1009.7 |
| 20260509155344 | 12 | 359 | 0.0 | 0.0 | 0.00 | 0.18 | 0.08 | 1 | 1009.8 |
| 20260509154320 | 12 | 359 | 0.0 | 3.2 | 0.00 | 0.18 | 0.08 | 1 | 1010.0 |
| 20260509153316 | 12 | 359 | 0.0 | 6.4 | 0.03 | 0.18 | 0.08 | 1 | 1010.0 |
| 20260509152315 | 12 | 359 | 0.0 | 4.8 | 0.03 | 0.18 | 0.08 | 1 | 1010.0 |
| 20260509151325 | 12 | 359 | 0.0 | 4.8 | 0.03 | 0.18 | 0.08 | 1 | 1010.1 |
| 20260509150321 | 12 | 359 | 0.0 | 3.2 | 0.03 | 0.18 | 0.08 | 1 | 1009.9 |
| 20260509145319 | 12 | 359 | 0.0 | 1.6 | 0.03 | 0.18 | 0.08 | 1 | 1009.7 |
| 20260509144318 | 12 | 359 | 1.6 | 4.8 | 0.03 | 0.18 | 0.08 | 1 | 1009.7 |
| 20260509143345 | 12 | 359 | 0.0 | 3.2 | 0.00 | 0.15 | 0.05 | 1 | 1009.8 |
| 20260509142320 | 11 | 359 | 0.0 | 3.2 | 0.00 | 0.15 | 0.05 | 1 | 1009.9 |
| 20260509141318 | 11 | 359 | 0.0 | 4.8 | 0.00 | 0.15 | 0.05 | 1 | 1009.8 |
| 20260509140327 | 11 | 359 | 0.0 | 4.8 | 0.00 | 0.15 | 0.05 | 1 | 1010.0 |
| 20260509135321 | 11 | 359 | 0.0 | 6.4 | 0.00 | 0.15 | 0.05 | 1 | 1010.0 |
| 20260509134317 | 10 | 359 | 0.0 | 3.2 | 0.00 | 0.15 | 0.05 | 1 | 1010.2 |
| 20260509133327 | 10 | 359 | 0.0 | 3.2 | 0.00 | 0.15 | 0.05 | 1 | 1010.0 |
| 20260509132326 | 10 | 359 | 1.6 | 4.8 | 0.00 | 0.15 | 0.05 | 1 | 1010.1 |
| 20260509131323 | 10 | 359 | 1.6 | 4.8 | 0.00 | 0.15 | 0.05 | 1 | 1010.2 |